Weather History for West Palm Beach, FL

Change the Weather History Date:

Friday, January 9, 2015

  Actual Average Record
Temperature  
Mean Temperature 71 °F 66 °F  
Max Temperature 79 °F 74 °F 85 °F (1971)
Min Temperature 62 °F 57 °F 31 °F (1956)
Degree Days  
Heating Degree Days 0 3  
Month to date heating degree days 1 27  
Since 1 July heating degree days 43 98  
Cooling Degree Days 6 3  
Month to date cooling degree days 83 34  
Year to date cooling degree days 83 34  
Growing Degree Days 22 (Base 50)    
Moisture  
Dew Point 61 °F    
Average Humidity 71    
Maximum Humidity 93    
Minimum Humidity 48    
Precipitation  
Precipitation 0.31 in 0.11 in 2.98 in (2014)
Month to date precipitation 0.54 0.99  
Year to date precipitation 0.54 0.99  
Snow  
Snow 0.00 in - - ()
Month to date snowfall 0.0  
Since 1 July snowfall 0.0  
Snow Depth 0.00 in    
Sea Level Pressure  
Sea Level Pressure 30.20 in    
Wind  
Wind Speed 9 mph (ENE)    
Max Wind Speed 18 mph    
Max Gust Speed 23 mph    
Visibility 10 miles    
Events Rain    
T = Trace of Precipitation, MM = Missing Value Source: NWS Daily Summary

Daily Weather History Graph

Daily Weather History Graph

Search for Another Location

Airport:

Trip Planner

Search our weather history database for the weather conditions in past years. The results will help you decide how hot, cold, wet, or windy it might be!

Date:

Astronomy

Jan. 09, 2015 Rise Set
Actual Time 7:10 AM EST 5:44 PM EST
Civil Twilight 6:45 AM EST 6:09 PM EST
Nautical Twilight 6:16 AM EST 6:38 PM EST
Astronomical Twilight 5:48 AM EST 7:06 PM EST
Moon 9:50 PM EST (1/9) 9:49 AM EST (1/9)
Length of Visible Light 11h 24m
Length of Day
10h 34m
Waning Gibbous, 82% of the Moon is Illuminated
Jan 9
Waning Gibbous
Jan 13
Last Quarter
Jan 20
New
Jan 26
First Quarter
Feb 3
Full

Hourly Weather History & Observations

Time (EST) Temp. Dew Point Humidity Pressure Visibility Wind Dir Wind Speed Gust Speed Precip Events Conditions
12:53 AM 69.1 °F 55.9 °F 63% 30.19 in 10.0 mi East 17.3 mph - N/A   Mostly Cloudy
1:53 AM 68.0 °F 55.0 °F 63% 30.19 in 10.0 mi ESE 12.7 mph - N/A   Scattered Clouds
2:53 AM 68.0 °F 55.9 °F 65% 30.18 in 10.0 mi ESE 13.8 mph - N/A   Mostly Cloudy
3:53 AM 69.1 °F 57.0 °F 65% 30.18 in 10.0 mi ESE 13.8 mph - N/A   Mostly Cloudy
4:53 AM 70.0 °F 57.0 °F 63% 30.18 in 10.0 mi East 12.7 mph - N/A   Mostly Cloudy
5:53 AM 68.0 °F 61.0 °F 78% 30.19 in 10.0 mi East 10.4 mph - 0.00 in   Mostly Cloudy
6:53 AM 69.1 °F 61.0 °F 75% 30.20 in 10.0 mi East 13.8 mph - 0.00 in Rain Light Rain
7:22 AM 69.1 °F 62.1 °F 78% 30.21 in 10.0 mi East 13.8 mph - 0.00 in Rain Light Rain
7:53 AM 69.1 °F 62.1 °F 78% 30.22 in 7.0 mi WNW 4.6 mph - 0.27 in Rain Light Rain
8:53 AM 71.1 °F 64.0 °F 78% 30.23 in 7.0 mi ESE 9.2 mph - 0.04 in   Mostly Cloudy
9:53 AM 73.0 °F 64.0 °F 73% 30.24 in 10.0 mi ESE 11.5 mph - N/A   Mostly Cloudy
10:12 AM 73.0 °F 63.0 °F 71% 30.24 in 10.0 mi SE 8.1 mph - N/A   Mostly Cloudy
10:53 AM 73.9 °F 63.0 °F 68% 30.23 in 10.0 mi ESE 5.8 mph - N/A   Mostly Cloudy
11:36 AM 73.9 °F 64.0 °F 71% 30.21 in 10.0 mi East 3.5 mph - N/A   Mostly Cloudy
11:53 AM 75.9 °F 64.9 °F 69% 30.20 in 10.0 mi Calm Calm - N/A   Mostly Cloudy
12:37 PM 75.9 °F 63.0 °F 64% 30.17 in 10.0 mi Calm Calm - N/A   Mostly Cloudy
12:53 PM 77.0 °F 64.0 °F 64% 30.17 in 10.0 mi East 6.9 mph - N/A   Mostly Cloudy
1:53 PM 78.1 °F 57.0 °F 48% 30.15 in 10.0 mi NNW 8.1 mph - N/A   Mostly Cloudy
2:53 PM 73.9 °F 64.9 °F 73% 30.14 in 10.0 mi NE 10.4 mph - N/A   Mostly Cloudy
3:53 PM 75.2 °F 62.6 °F 65% 30.15 in 10.0 mi Variable 4.6 mph - N/A   Mostly Cloudy
4:53 PM 73.9 °F 63.0 °F 68% 30.16 in 10.0 mi NNE 4.6 mph - N/A   Mostly Cloudy
5:53 PM 73.0 °F 63.0 °F 71% 30.18 in 10.0 mi East 4.6 mph - N/A   Mostly Cloudy
6:53 PM 70.0 °F 63.0 °F 78% 30.20 in 10.0 mi Calm Calm - N/A   Scattered Clouds
7:53 PM 69.1 °F 63.0 °F 81% 30.22 in 10.0 mi NNW 11.5 mph - N/A   Scattered Clouds
8:53 PM 66.9 °F 63.0 °F 87% 30.23 in 10.0 mi North 9.2 mph - N/A   Mostly Cloudy
9:05 PM 66.0 °F 63.0 °F 90% 30.24 in 10.0 mi NNW 10.4 mph - N/A   Mostly Cloudy
9:30 PM 64.9 °F 62.1 °F 90% 30.24 in 10.0 mi NNW 10.4 mph - N/A   Mostly Cloudy
9:53 PM 64.9 °F 62.1 °F 90% 30.23 in 10.0 mi NNW 11.5 mph - N/A   Mostly Cloudy
10:22 PM 64.0 °F 61.0 °F 90% 30.23 in 10.0 mi NNW 6.9 mph - N/A   Partly Cloudy
10:53 PM 64.0 °F 60.1 °F 87% 30.23 in 10.0 mi NNW 9.2 mph - N/A   Partly Cloudy
11:53 PM 62.1 °F 59.0 °F 90% 30.23 in 10.0 mi NNW 9.2 mph - N/A   Scattered Clouds